Regional Weather Roundup
Issued by NWS

Home | Current Version | Previous Version | Text Only | Print | Product List | Glossary Off
Versions: 1 2 3 4 5 6 7 8 9 10 11 12 13 14 15 16 17 18 19 20 21 22 23 24 25 26 27 28 29 30 31 32 33 34 35 36 37 38 39 40 41 42 43 44 45 46 47 48 49 50

000
ASUS43 KLMK 280102
RWRKY
KENTUCKY REGIONAL WEATHER ROUNDUP
NATIONAL WEATHER SERVICE LOUISVILLE KY
800 PM EST TUE JAN 27 2015

NOTE "FAIR" INDICATES FEW OR NO CLOUDS BELOW 12,000 FEET
WITH NO SIGNIFICANT WEATHER AND/OR OBSTRUCTIONS TO VISIBILITY.

KYZ001>023-026-027-061>063-070>075-280200-
WESTERN AND SOUTH CENTRAL KENTUCKY

CITY           SKY/WX    TMP DP  RH WIND       PRES   REMARKS
PADUCAH        CLEAR     36  29  75 E5        30.21R WCI  32
HENDERSON      CLOUDY    34  28  80 N6        30.24R WCI  29
OWENSBORO      CLOUDY    33  30  89 N7        30.24R WCI  27
HOPKINSVILLE   CLOUDY    36  29  75 N9        30.21R WCI  29
BOWLING GREEN  FLURRIES  34  30  85 N5        30.22R WCI  30
GLASGOW        NOT AVBL
$$

KYZ024-025-028>034-038-045-046-053-280200-
NORTH CENTRAL KENTUCKY

CITY           SKY/WX    TMP DP  RH WIND       PRES   REMARKS
LOUISVILLE/SDF PTCLDY    30  14  51 N10       30.21R WCI  21
LOUISVILLE/LOU CLEAR     30  14  51 N7        30.22R WCI  23
FORT KNOX      CLOUDY    31  25  77 N6        30.19R WCI  25
$$

KYZ035>037-039>044-047>052-055>060-089>105-280200-
NORTHEAST KENTUCKY

CITY           SKY/WX    TMP DP  RH WIND       PRES   REMARKS
LEXINGTON      CLEAR     25  12  58 N5        30.17R WCI  19
COVINGTON      CLEAR     23  12  62 N13       30.20R WCI  11
FRANKFORT      CLEAR     26  12  55 NW5       30.18R WCI  20
$$

KYZ054-064>069-076>088-106>120-280200-
SOUTHEAST KENTUCKY

CITY           SKY/WX    TMP DP  RH WIND       PRES   REMARKS
JACKSON        CLEAR     26  12  55 N6        30.12R WCI  19
LONDON         CLOUDY    31  19  61 NW6       30.13R WCI  25
SOMERSET       NOT AVBL
MIDDLESBORO    NOT AVBL
MONTICELLO     CLOUDY    32  27  82 NW6       30.19R WCI  26
$$




USA.gov is the U.S. government's official web portal to all federal, state and local government web resources and services.